Back to catalog

COSMOS 2251 DEB

AliveLEO
NORAD 34878·DEBRIS·🇷🇺 Russia

Launched Jun 16, 1993 from Plesetsk Cosmodrome

Loading…

Next Passes (next 24 hours)

TLE

StaleSource: Space-Track

Epoch: Sep 7, 2026, 14:33 UTC

1 34878U 93036ACR 26250.60626251  .00000597  00000-0  60162-3 0  9993
2 34878  73.9677 340.6298 0435465 272.6084 149.4472 13.44536217848860

Track COSMOS 2251 DEB in real time with AllMySat

Download on the App Store